owner,sensor,date,latitude,longitude,vertical_datum,sea_water_practical_salinity,qcFlag 
DISL,ioos:station:DISL:BSCA:1,2012-12-01T00:00:00Z,30.3288,-87.8293,2.008,23.81,1111122 
DISL,ioos:station:DISL:BSCA:1,2012-12-01T00:30:00Z,30.3288,-87.8293,2.037,23.81,1111122 
DISL,ioos:station:DISL:BSCA:1,2012-12-01T01:00:00Z,30.3288,-87.8293,2.059,23.83,1111122 
DISL,ioos:station:DISL:BSCA:1,2012-12-01T01:30:00Z,30.3288,-87.8293,2.105,23.84,1111122 
DISL,ioos:station:DISL:BSCA:1,2012-12-01T02:00:00Z,30.3288,-87.8293,2.125,23.86,1111122 
DISL,ioos:station:DISL:BSCA:1,2012-12-01T02:30:00Z,30.3288,-87.8293,2.159,23.86,1111122 
DISL,ioos:station:DISL:BSCA:1,2012-12-01T03:00:00Z,30.3288,-87.8293,2.183,23.86,1111122 
DISL,ioos:station:DISL:BSCA:1,2012-12-01T03:30:00Z,30.3288,-87.8293,2.203,23.86,1111122 
DISL,ioos:station:DISL:BSCA:1,2012-12-01T04:00:00Z,30.3288,-87.8293,2.235,23.86,1111122 
DISL,ioos:station:DISL:BSCA:1,2012-12-01T04:30:00Z,30.3288,-87.8293,2.246,23.85,1111122 
DISL,ioos:station:DISL:BSCA:1,2012-12-01T05:00:00Z,30.3288,-87.8293,2.246,23.87,1111122 
DISL,ioos:station:DISL:BSCA:1,2012-12-01T05:30:00Z,30.3288,-87.8293,2.199,23.84,1111122 
DISL,ioos:station:DISL:BSCA:1,2012-12-01T06:00:00Z,30.3288,-87.8293,2.221,23.86,1111122 
DISL,ioos:station:DISL:BSCA:1,2012-12-01T06:30:00Z,30.3288,-87.8293,2.214,23.85,1111122 
DISL,ioos:station:DISL:BSCA:1,2012-12-01T07:00:00Z,30.3288,-87.8293,2.208,23.86,1111122 
DISL,ioos:station:DISL:BSCA:1,2012-12-01T07:30:00Z,30.3288,-87.8293,2.191,23.81,1111122 
DISL,ioos:station:DISL:BSCA:1,2012-12-01T08:00:00Z,30.3288,-87.8293,2.169,23.73,1111122 
DISL,ioos:station:DISL:BSCA:1,2012-12-01T08:30:00Z,30.3288,-87.8293,2.144,23.76,1111122 
DISL,ioos:station:DISL:BSCA:1,2012-12-01T09:00:00Z,30.3288,-87.8293,2.11,23.73,1111122 
DISL,ioos:station:DISL:BSCA:1,2012-12-01T09:30:00Z,30.3288,-87.8293,2.065,23.68,1111122 
DISL,ioos:station:DISL:BSCA:1,2012-12-01T10:00:00Z,30.3288,-87.8293,2.058,23.69,1111122 
DISL,ioos:station:DISL:BSCA:1,2012-12-01T10:30:00Z,30.3288,-87.8293,1.992,23.67,1111122 
DISL,ioos:station:DISL:BSCA:1,2012-12-01T11:00:00Z,30.3288,-87.8293,1.961,23.72,1111122 
DISL,ioos:station:DISL:BSCA:1,2012-12-01T11:30:00Z,30.3288,-87.8293,1.933,23.56,1111122 
DISL,ioos:station:DISL:BSCA:1,2012-12-01T12:00:00Z,30.3288,-87.8293,1.896,23.52,1111122 
DISL,ioos:station:DISL:BSCA:1,2012-12-01T12:30:00Z,30.3288,-87.8293,1.873,23.5,1111122 
DISL,ioos:station:DISL:BSCA:1,2012-12-01T13:00:00Z,30.3288,-87.8293,1.854,23.51,1111122 
DISL,ioos:station:DISL:BSCA:1,2012-12-01T13:30:00Z,30.3288,-87.8293,1.833,23.51,1111122 
DISL,ioos:station:DISL:BSCA:1,2012-12-01T14:00:00Z,30.3288,-87.8293,1.805,23.52,1111122 
DISL,ioos:station:DISL:BSCA:1,2012-12-01T14:30:00Z,30.3288,-87.8293,1.781,23.53,1111122 
DISL,ioos:station:DISL:BSCA:1,2012-12-01T15:00:00Z,30.3288,-87.8293,1.762,23.53,1111122 
DISL,ioos:station:DISL:BSCA:1,2012-12-01T15:30:00Z,30.3288,-87.8293,1.756,23.54,1111122 
DISL,ioos:station:DISL:BSCA:1,2012-12-01T16:00:00Z,30.3288,-87.8293,1.746,23.53,1111122 
DISL,ioos:station:DISL:BSCA:1,2012-12-01T16:30:00Z,30.3288,-87.8293,1.752,23.55,1111122 
DISL,ioos:station:DISL:BSCA:1,2012-12-01T17:00:00Z,30.3288,-87.8293,1.754,23.54,1111122 
DISL,ioos:station:DISL:BSCA:1,2012-12-01T17:30:00Z,30.3288,-87.8293,1.757,23.53,1111122 
DISL,ioos:station:DISL:BSCA:1,2012-12-01T18:00:00Z,30.3288,-87.8293,1.77,23.54,1111122 
DISL,ioos:station:DISL:BSCA:1,2012-12-01T18:30:00Z,30.3288,-87.8293,1.783,23.58,1111122 
DISL,ioos:station:DISL:BSCA:1,2012-12-01T19:00:00Z,30.3288,-87.8293,1.799,23.57,1111122 
DISL,ioos:station:DISL:BSCA:1,2012-12-01T19:30:00Z,30.3288,-87.8293,1.819,23.58,1111122 
DISL,ioos:station:DISL:BSCA:1,2012-12-01T20:00:00Z,30.3288,-87.8293,1.844,23.63,1111122 
DISL,ioos:station:DISL:BSCA:1,2012-12-01T20:30:00Z,30.3288,-87.8293,1.859,23.59,1111122 
DISL,ioos:station:DISL:BSCA:1,2012-12-01T21:00:00Z,30.3288,-87.8293,1.879,23.66,1111122 
DISL,ioos:station:DISL:BSCA:1,2012-12-01T21:30:00Z,30.3288,-87.8293,1.9,23.72,1111122 
DISL,ioos:station:DISL:BSCA:1,2012-12-01T22:00:00Z,30.3288,-87.8293,1.913,23.71,1111122 
DISL,ioos:station:DISL:BSCA:1,2012-12-01T22:30:00Z,30.3288,-87.8293,1.938,23.66,1111122 
DISL,ioos:station:DISL:BSCA:1,2012-12-01T23:00:00Z,30.3288,-87.8293,1.95,23.7,1111122 
DISL,ioos:station:DISL:BSCA:1,2012-12-01T23:30:00Z,30.3288,-87.8293,1.966,23.62,1111122 
DISL,ioos:station:DISL:BSCA:1,2012-12-02T00:00:00Z,30.3288,-87.8293,1.987,23.6,1111122 
DISL,ioos:station:DISL:BSCA:1,2012-12-02T00:30:00Z,30.3288,-87.8293,2.008,23.6,1111122 
DISL,ioos:station:DISL:BSCA:1,2012-12-02T01:00:00Z,30.3288,-87.8293,2.041,23.63,1111122 
DISL,ioos:station:DISL:BSCA:1,2012-12-02T01:30:00Z,30.3288,-87.8293,2.07,23.63,1111122 
DISL,ioos:station:DISL:BSCA:1,2012-12-02T02:00:00Z,30.3288,-87.8293,2.101,23.65,1111122 
DISL,ioos:station:DISL:BSCA:1,2012-12-02T02:30:00Z,30.3288,-87.8293,2.123,23.66,1111122 
DISL,ioos:station:DISL:BSCA:1,2012-12-02T03:00:00Z,30.3288,-87.8293,2.144,23.67,1111122 
DISL,ioos:station:DISL:BSCA:1,2012-12-02T03:30:00Z,30.3288,-87.8293,2.161,23.68,1111122 
DISL,ioos:station:DISL:BSCA:1,2012-12-02T04:00:00Z,30.3288,-87.8293,2.175,23.69,1111122 
DISL,ioos:station:DISL:BSCA:1,2012-12-02T04:30:00Z,30.3288,-87.8293,2.19,23.69,1111122 
DISL,ioos:station:DISL:BSCA:1,2012-12-02T05:00:00Z,30.3288,-87.8293,2.201,23.7,1111122 
DISL,ioos:station:DISL:BSCA:1,2012-12-02T05:30:00Z,30.3288,-87.8293,2.216,23.73,1111122 
DISL,ioos:station:DISL:BSCA:1,2012-12-02T06:00:00Z,30.3288,-87.8293,2.22,23.73,1111122 
DISL,ioos:station:DISL:BSCA:1,2012-12-02T06:30:00Z,30.3288,-87.8293,2.222,23.74,1111122 
DISL,ioos:station:DISL:BSCA:1,2012-12-02T07:00:00Z,30.3288,-87.8293,2.211,23.74,1111122 
DISL,ioos:station:DISL:BSCA:1,2012-12-02T07:30:00Z,30.3288,-87.8293,2.193,23.71,1111122 
DISL,ioos:station:DISL:BSCA:1,2012-12-02T08:00:00Z,30.3288,-87.8293,2.17,23.64,1111122 
DISL,ioos:station:DISL:BSCA:1,2012-12-02T08:30:00Z,30.3288,-87.8293,2.138,23.63,1111122 
DISL,ioos:station:DISL:BSCA:1,2012-12-02T09:00:00Z,30.3288,-87.8293,2.106,23.62,1111122 
DISL,ioos:station:DISL:BSCA:1,2012-12-02T09:30:00Z,30.3288,-87.8293,2.069,23.6,1111122 
DISL,ioos:station:DISL:BSCA:1,2012-12-02T10:00:00Z,30.3288,-87.8293,2.035,23.58,1111122 
DISL,ioos:station:DISL:BSCA:1,2012-12-02T10:30:00Z,30.3288,-87.8293,2.003,23.57,1111122 
DISL,ioos:station:DISL:BSCA:1,2012-12-02T11:00:00Z,30.3288,-87.8293,1.968,23.57,1111122 
DISL,ioos:station:DISL:BSCA:1,2012-12-02T11:30:00Z,30.3288,-87.8293,1.932,23.59,1111122 
DISL,ioos:station:DISL:BSCA:1,2012-12-02T12:00:00Z,30.3288,-87.8293,1.892,23.55,1111122 
DISL,ioos:station:DISL:BSCA:1,2012-12-02T12:30:00Z,30.3288,-87.8293,1.858,23.53,1111122 
DISL,ioos:station:DISL:BSCA:1,2012-12-02T13:00:00Z,30.3288,-87.8293,1.822,23.52,1111122 
DISL,ioos:station:DISL:BSCA:1,2012-12-02T13:30:00Z,30.3288,-87.8293,1.792,23.52,1111122 
DISL,ioos:station:DISL:BSCA:1,2012-12-02T14:00:00Z,30.3288,-87.8293,1.764,23.52,1111122 
DISL,ioos:station:DISL:BSCA:1,2012-12-02T14:30:00Z,30.3288,-87.8293,1.736,23.52,1111122 
DISL,ioos:station:DISL:BSCA:1,2012-12-02T15:00:00Z,30.3288,-87.8293,1.718,23.52,1111122 
DISL,ioos:station:DISL:BSCA:1,2012-12-02T15:30:00Z,30.3288,-87.8293,1.707,23.53,1111122 
DISL,ioos:station:DISL:BSCA:1,2012-12-02T16:00:00Z,30.3288,-87.8293,1.701,23.62,1111122 
DISL,ioos:station:DISL:BSCA:1,2012-12-02T16:30:00Z,30.3288,-87.8293,1.692,23.68,1111122 
DISL,ioos:station:DISL:BSCA:1,2012-12-02T17:00:00Z,30.3288,-87.8293,1.686,23.67,1111122 
DISL,ioos:station:DISL:BSCA:1,2012-12-02T17:30:00Z,30.3288,-87.8293,1.688,23.68,1111122 
DISL,ioos:station:DISL:BSCA:1,2012-12-02T18:00:00Z,30.3288,-87.8293,1.695,23.66,1111122 
DISL,ioos:station:DISL:BSCA:1,2012-12-02T18:30:00Z,30.3288,-87.8293,1.701,23.66,1111122 
DISL,ioos:station:DISL:BSCA:1,2012-12-02T19:00:00Z,30.3288,-87.8293,1.715,23.64,1111122 
DISL,ioos:station:DISL:BSCA:1,2012-12-02T19:30:00Z,30.3288,-87.8293,1.732,23.64,1111122 
DISL,ioos:station:DISL:BSCA:1,2012-12-02T20:00:00Z,30.3288,-87.8293,1.755,23.66,1111122 
DISL,ioos:station:DISL:BSCA:1,2012-12-02T20:30:00Z,30.3288,-87.8293,1.779,23.62,1111122 
DISL,ioos:station:DISL:BSCA:1,2012-12-02T21:00:00Z,30.3288,-87.8293,1.802,23.57,1111122 
DISL,ioos:station:DISL:BSCA:1,2012-12-02T21:30:00Z,30.3288,-87.8293,1.83,23.56,1111122 
DISL,ioos:station:DISL:BSCA:1,2012-12-02T22:00:00Z,30.3288,-87.8293,1.847,23.53,1111122 
DISL,ioos:station:DISL:BSCA:1,2012-12-02T22:30:00Z,30.3288,-87.8293,1.876,23.52,1111122 
DISL,ioos:station:DISL:BSCA:1,2012-12-02T23:00:00Z,30.3288,-87.8293,1.897,23.56,1111122 
DISL,ioos:station:DISL:BSCA:1,2012-12-02T23:30:00Z,30.3288,-87.8293,1.925,23.55,1111122 
DISL,ioos:station:DISL:BSCA:1,2012-12-03T00:00:00Z,30.3288,-87.8293,1.95,23.5,1111122 
DISL,ioos:station:DISL:BSCA:1,2012-12-03T00:30:00Z,30.3288,-87.8293,1.973,23.49,1111122 
DISL,ioos:station:DISL:BSCA:1,2012-12-03T01:00:00Z,30.3288,-87.8293,1.997,23.45,1111122 
DISL,ioos:station:DISL:BSCA:1,2012-12-03T01:30:00Z,30.3288,-87.8293,2.027,23.42,1111122 
DISL,ioos:station:DISL:BSCA:1,2012-12-03T02:00:00Z,30.3288,-87.8293,2.063,23.41,1111122 
DISL,ioos:station:DISL:BSCA:1,2012-12-03T02:30:00Z,30.3288,-87.8293,2.085,23.38,1111122 
DISL,ioos:station:DISL:BSCA:1,2012-12-03T03:00:00Z,30.3288,-87.8293,2.116,23.4,1111122 
DISL,ioos:station:DISL:BSCA:1,2012-12-03T03:30:00Z,30.3288,-87.8293,2.136,23.38,1111122 
DISL,ioos:station:DISL:BSCA:1,2012-12-03T04:00:00Z,30.3288,-87.8293,2.166,23.4,1111122 
DISL,ioos:station:DISL:BSCA:1,2012-12-03T04:30:00Z,30.3288,-87.8293,2.187,23.41,1111122 
DISL,ioos:station:DISL:BSCA:1,2012-12-03T05:00:00Z,30.3288,-87.8293,2.201,23.46,1111122 
DISL,ioos:station:DISL:BSCA:1,2012-12-03T05:30:00Z,30.3288,-87.8293,2.206,23.43,1111122 
DISL,ioos:station:DISL:BSCA:1,2012-12-03T06:00:00Z,30.3288,-87.8293,2.207,23.45,1111122 
DISL,ioos:station:DISL:BSCA:1,2012-12-03T06:30:00Z,30.3288,-87.8293,2.21,23.39,1111122 
DISL,ioos:station:DISL:BSCA:1,2012-12-03T07:00:00Z,30.3288,-87.8293,2.201,23.37,1111122 
DISL,ioos:station:DISL:BSCA:1,2012-12-03T07:30:00Z,30.3288,-87.8293,2.187,23.31,1111122 
DISL,ioos:station:DISL:BSCA:1,2012-12-03T08:00:00Z,30.3288,-87.8293,2.169,23.34,1111122 
DISL,ioos:station:DISL:BSCA:1,2012-12-03T08:30:00Z,30.3288,-87.8293,2.143,23.29,1111122 
DISL,ioos:station:DISL:BSCA:1,2012-12-03T09:00:00Z,30.3288,-87.8293,2.115,23.3,1111122 
DISL,ioos:station:DISL:BSCA:1,2012-12-03T09:30:00Z,30.3288,-87.8293,2.085,23.25,1111122 
DISL,ioos:station:DISL:BSCA:1,2012-12-03T10:00:00Z,30.3288,-87.8293,2.048,23.46,1111122 
DISL,ioos:station:DISL:BSCA:1,2012-12-03T10:30:00Z,30.3288,-87.8293,2.027,23.44,1111122 
DISL,ioos:station:DISL:BSCA:1,2012-12-03T11:00:00Z,30.3288,-87.8293,1.962,23.24,1111122 
DISL,ioos:station:DISL:BSCA:1,2012-12-03T11:30:00Z,30.3288,-87.8293,1.949,23.32,1111122 
DISL,ioos:station:DISL:BSCA:1,2012-12-03T12:00:00Z,30.3288,-87.8293,1.911,23.35,1111122 
DISL,ioos:station:DISL:BSCA:1,2012-12-03T12:30:00Z,30.3288,-87.8293,1.874,23.29,1111122 
DISL,ioos:station:DISL:BSCA:1,2012-12-03T13:00:00Z,30.3288,-87.8293,1.847,23.33,1111122 
DISL,ioos:station:DISL:BSCA:1,2012-12-03T13:30:00Z,30.3288,-87.8293,1.821,23.31,1111122 
DISL,ioos:station:DISL:BSCA:1,2012-12-03T14:00:00Z,30.3288,-87.8293,1.793,23.4,1111122 
DISL,ioos:station:DISL:BSCA:1,2012-12-03T14:30:00Z,30.3288,-87.8293,1.772,23.44,1111122 
DISL,ioos:station:DISL:BSCA:1,2012-12-03T15:00:00Z,30.3288,-87.8293,1.747,23.46,1111122 
DISL,ioos:station:DISL:BSCA:1,2012-12-03T15:30:00Z,30.3288,-87.8293,1.731,23.48,1111122 
DISL,ioos:station:DISL:BSCA:1,2012-12-03T16:00:00Z,30.3288,-87.8293,1.724,23.48,1111122 
DISL,ioos:station:DISL:BSCA:1,2012-12-03T16:30:00Z,30.3288,-87.8293,1.71,23.51,1111122 
DISL,ioos:station:DISL:BSCA:1,2012-12-03T17:00:00Z,30.3288,-87.8293,1.711,23.52,1111122 
DISL,ioos:station:DISL:BSCA:1,2012-12-03T17:30:00Z,30.3288,-87.8293,1.703,23.98,1111122 
DISL,ioos:station:DISL:BSCA:1,2012-12-03T18:00:00Z,30.3288,-87.8293,1.71,24.0,1111122 
DISL,ioos:station:DISL:BSCA:1,2012-12-03T18:30:00Z,30.3288,-87.8293,1.714,24.04,1111122 
DISL,ioos:station:DISL:BSCA:1,2012-12-03T19:00:00Z,30.3288,-87.8293,1.732,24.1,1111122 
DISL,ioos:station:DISL:BSCA:1,2012-12-03T19:30:00Z,30.3288,-87.8293,1.752,24.06,1111122 
DISL,ioos:station:DISL:BSCA:1,2012-12-03T20:00:00Z,30.3288,-87.8293,1.783,24.06,1111122 
DISL,ioos:station:DISL:BSCA:1,2012-12-03T20:30:00Z,30.3288,-87.8293,1.809,24.01,1111122 
DISL,ioos:station:DISL:BSCA:1,2012-12-03T21:00:00Z,30.3288,-87.8293,1.832,24.03,1111122 
DISL,ioos:station:DISL:BSCA:1,2012-12-03T21:30:00Z,30.3288,-87.8293,1.86,23.99,1111122 
DISL,ioos:station:DISL:BSCA:1,2012-12-03T22:00:00Z,30.3288,-87.8293,1.878,24.05,1111122 
DISL,ioos:station:DISL:BSCA:1,2012-12-03T22:30:00Z,30.3288,-87.8293,1.904,24.03,1111122 
DISL,ioos:station:DISL:BSCA:1,2012-12-03T23:00:00Z,30.3288,-87.8293,1.917,24.03,1111122 
DISL,ioos:station:DISL:BSCA:1,2012-12-03T23:30:00Z,30.3288,-87.8293,1.938,24.05,1111122 
DISL,ioos:station:DISL:BSCA:1,2012-12-04T00:00:00Z,30.3288,-87.8293,1.96,24.04,1111122 
DISL,ioos:station:DISL:BSCA:1,2012-12-04T00:30:00Z,30.3288,-87.8293,1.984,23.92,1111122 
DISL,ioos:station:DISL:BSCA:1,2012-12-04T01:00:00Z,30.3288,-87.8293,2.013,23.85,1111122 
DISL,ioos:station:DISL:BSCA:1,2012-12-04T01:30:00Z,30.3288,-87.8293,2.045,23.83,1111122 
DISL,ioos:station:DISL:BSCA:1,2012-12-04T02:00:00Z,30.3288,-87.8293,2.054,23.87,1111122 
DISL,ioos:station:DISL:BSCA:1,2012-12-04T02:30:00Z,30.3288,-87.8293,2.085,24.07,1111122 
DISL,ioos:station:DISL:BSCA:1,2012-12-04T03:00:00Z,30.3288,-87.8293,2.101,24.24,1111122 
DISL,ioos:station:DISL:BSCA:1,2012-12-04T03:30:00Z,30.3288,-87.8293,2.111,23.84,1111122 
DISL,ioos:station:DISL:BSCA:1,2012-12-04T04:00:00Z,30.3288,-87.8293,2.158,24.14,1111122 
DISL,ioos:station:DISL:BSCA:1,2012-12-04T04:30:00Z,30.3288,-87.8293,2.168,24.23,1111122 
DISL,ioos:station:DISL:BSCA:1,2012-12-04T05:00:00Z,30.3288,-87.8293,2.194,24.48,1111122 
DISL,ioos:station:DISL:BSCA:1,2012-12-04T05:30:00Z,30.3288,-87.8293,2.206,24.47,1111122 
DISL,ioos:station:DISL:BSCA:1,2012-12-04T06:00:00Z,30.3288,-87.8293,2.214,24.44,1111122 
DISL,ioos:station:DISL:BSCA:1,2012-12-04T06:30:00Z,30.3288,-87.8293,2.223,24.5,1111122 
DISL,ioos:station:DISL:BSCA:1,2012-12-04T07:00:00Z,30.3288,-87.8293,2.216,24.62,1111122 
DISL,ioos:station:DISL:BSCA:1,2012-12-04T07:30:00Z,30.3288,-87.8293,2.227,24.67,1111122 
DISL,ioos:station:DISL:BSCA:1,2012-12-04T08:00:00Z,30.3288,-87.8293,2.221,24.77,1111122 
DISL,ioos:station:DISL:BSCA:1,2012-12-04T08:30:00Z,30.3288,-87.8293,2.21,24.5,1111122 
DISL,ioos:station:DISL:BSCA:1,2012-12-04T09:00:00Z,30.3288,-87.8293,2.194,24.63,1111122 
DISL,ioos:station:DISL:BSCA:1,2012-12-04T09:30:00Z,30.3288,-87.8293,2.176,24.61,1111122 
DISL,ioos:station:DISL:BSCA:1,2012-12-04T10:00:00Z,30.3288,-87.8293,2.146,24.66,1111122 
DISL,ioos:station:DISL:BSCA:1,2012-12-04T10:30:00Z,30.3288,-87.8293,2.121,24.6,1111122 
DISL,ioos:station:DISL:BSCA:1,2012-12-04T11:00:00Z,30.3288,-87.8293,2.088,24.65,1111122 
DISL,ioos:station:DISL:BSCA:1,2012-12-04T11:30:00Z,30.3288,-87.8293,2.057,24.73,1111122 
DISL,ioos:station:DISL:BSCA:1,2012-12-04T12:00:00Z,30.3288,-87.8293,2.033,24.69,1111122 
DISL,ioos:station:DISL:BSCA:1,2012-12-04T12:30:00Z,30.3288,-87.8293,2.007,24.8,1111122 
DISL,ioos:station:DISL:BSCA:1,2012-12-04T13:00:00Z,30.3288,-87.8293,1.984,24.9,1111122 
DISL,ioos:station:DISL:BSCA:1,2012-12-04T13:30:00Z,30.3288,-87.8293,1.949,24.91,1111122 
DISL,ioos:station:DISL:BSCA:1,2012-12-04T14:00:00Z,30.3288,-87.8293,1.918,24.82,1111122 
DISL,ioos:station:DISL:BSCA:1,2012-12-04T14:30:00Z,30.3288,-87.8293,1.884,24.56,1111122 
DISL,ioos:station:DISL:BSCA:1,2012-12-04T15:00:00Z,30.3288,-87.8293,1.862,24.62,1111122 
DISL,ioos:station:DISL:BSCA:1,2012-12-04T15:30:00Z,30.3288,-87.8293,1.848,24.41,1111122 
DISL,ioos:station:DISL:BSCA:1,2012-12-04T16:00:00Z,30.3288,-87.8293,1.839,24.34,1111122 
DISL,ioos:station:DISL:BSCA:1,2012-12-04T16:30:00Z,30.3288,-87.8293,1.839,24.51,1111122 
DISL,ioos:station:DISL:BSCA:1,2012-12-04T17:00:00Z,30.3288,-87.8293,1.827,24.72,1111122 
DISL,ioos:station:DISL:BSCA:1,2012-12-04T17:30:00Z,30.3288,-87.8293,1.814,24.66,1111122 
DISL,ioos:station:DISL:BSCA:1,2012-12-04T18:00:00Z,30.3288,-87.8293,1.816,24.48,1111122 
DISL,ioos:station:DISL:BSCA:1,2012-12-04T18:30:00Z,30.3288,-87.8293,1.81,24.66,1111122 
DISL,ioos:station:DISL:BSCA:1,2012-12-04T19:00:00Z,30.3288,-87.8293,1.815,24.58,1111122 
DISL,ioos:station:DISL:BSCA:1,2012-12-04T19:30:00Z,30.3288,-87.8293,1.825,24.58,1111122 
DISL,ioos:station:DISL:BSCA:1,2012-12-04T20:00:00Z,30.3288,-87.8293,1.838,24.52,1111122 
DISL,ioos:station:DISL:BSCA:1,2012-12-04T20:30:00Z,30.3288,-87.8293,1.852,24.46,1111122 
DISL,ioos:station:DISL:BSCA:1,2012-12-04T21:00:00Z,30.3288,-87.8293,1.861,24.34,1111122 
DISL,ioos:station:DISL:BSCA:1,2012-12-04T21:30:00Z,30.3288,-87.8293,1.885,24.47,1111122 
DISL,ioos:station:DISL:BSCA:1,2012-12-04T22:00:00Z,30.3288,-87.8293,1.903,24.5,1111122 
DISL,ioos:station:DISL:BSCA:1,2012-12-04T22:30:00Z,30.3288,-87.8293,1.933,24.38,1111122 
DISL,ioos:station:DISL:BSCA:1,2012-12-04T23:00:00Z,30.3288,-87.8293,1.952,24.41,1111122 
DISL,ioos:station:DISL:BSCA:1,2012-12-04T23:30:00Z,30.3288,-87.8293,1.973,24.36,1111122 
DISL,ioos:station:DISL:BSCA:1,2012-12-05T00:00:00Z,30.3288,-87.8293,1.971,24.3,1111122 
DISL,ioos:station:DISL:BSCA:1,2012-12-05T00:30:00Z,30.3288,-87.8293,1.978,24.2,1111122 
DISL,ioos:station:DISL:BSCA:1,2012-12-05T01:00:00Z,30.3288,-87.8293,2.014,24.15,1111122 
DISL,ioos:station:DISL:BSCA:1,2012-12-05T01:30:00Z,30.3288,-87.8293,2.031,24.04,1111122 
DISL,ioos:station:DISL:BSCA:1,2012-12-05T02:00:00Z,30.3288,-87.8293,2.05,24.05,1111122 
DISL,ioos:station:DISL:BSCA:1,2012-12-05T02:30:00Z,30.3288,-87.8293,2.075,24.23,1111122 
DISL,ioos:station:DISL:BSCA:1,2012-12-05T03:00:00Z,30.3288,-87.8293,2.086,24.31,1111122 
DISL,ioos:station:DISL:BSCA:1,2012-12-05T03:30:00Z,30.3288,-87.8293,2.106,24.33,1111122 
DISL,ioos:station:DISL:BSCA:1,2012-12-05T04:00:00Z,30.3288,-87.8293,2.12,24.29,1111122 
DISL,ioos:station:DISL:BSCA:1,2012-12-05T04:30:00Z,30.3288,-87.8293,2.134,24.44,1111122 
DISL,ioos:station:DISL:BSCA:1,2012-12-05T05:00:00Z,30.3288,-87.8293,2.142,24.48,1111122 
DISL,ioos:station:DISL:BSCA:1,2012-12-05T05:30:00Z,30.3288,-87.8293,2.15,24.53,1111122 
DISL,ioos:station:DISL:BSCA:1,2012-12-05T06:00:00Z,30.3288,-87.8293,2.147,24.53,1111122 
DISL,ioos:station:DISL:BSCA:1,2012-12-05T06:30:00Z,30.3288,-87.8293,2.145,24.53,1111122 
DISL,ioos:station:DISL:BSCA:1,2012-12-05T07:00:00Z,30.3288,-87.8293,2.145,24.62,1111122 
DISL,ioos:station:DISL:BSCA:1,2012-12-05T07:30:00Z,30.3288,-87.8293,2.136,24.67,1111122 
DISL,ioos:station:DISL:BSCA:1,2012-12-05T08:00:00Z,30.3288,-87.8293,2.132,24.67,1111122 
DISL,ioos:station:DISL:BSCA:1,2012-12-05T08:30:00Z,30.3288,-87.8293,2.109,24.69,1111122 
DISL,ioos:station:DISL:BSCA:1,2012-12-05T09:00:00Z,30.3288,-87.8293,2.098,24.75,1111122 
DISL,ioos:station:DISL:BSCA:1,2012-12-05T09:30:00Z,30.3288,-87.8293,2.081,24.76,1111122 
DISL,ioos:station:DISL:BSCA:1,2012-12-05T10:00:00Z,30.3288,-87.8293,2.061,24.79,1111122 
DISL,ioos:station:DISL:BSCA:1,2012-12-05T10:30:00Z,30.3288,-87.8293,2.037,24.83,1111122 
DISL,ioos:station:DISL:BSCA:1,2012-12-05T11:00:00Z,30.3288,-87.8293,2.002,24.82,1111122 
DISL,ioos:station:DISL:BSCA:1,2012-12-05T11:30:00Z,30.3288,-87.8293,1.967,24.85,1111122 
DISL,ioos:station:DISL:BSCA:1,2012-12-05T12:00:00Z,30.3288,-87.8293,1.936,24.6,1111122 
DISL,ioos:station:DISL:BSCA:1,2012-12-05T12:30:00Z,30.3288,-87.8293,1.91,24.65,1111122 
DISL,ioos:station:DISL:BSCA:1,2012-12-05T13:00:00Z,30.3288,-87.8293,1.893,24.66,1111122 
DISL,ioos:station:DISL:BSCA:1,2012-12-05T13:30:00Z,30.3288,-87.8293,1.848,24.5,1111122 
DISL,ioos:station:DISL:BSCA:1,2012-12-05T14:00:00Z,30.3288,-87.8293,1.842,24.84,1111122 
DISL,ioos:station:DISL:BSCA:1,2012-12-05T14:30:00Z,30.3288,-87.8293,1.819,24.05,1111122 
DISL,ioos:station:DISL:BSCA:1,2012-12-05T15:00:00Z,30.3288,-87.8293,1.8,24.1,1111122 
DISL,ioos:station:DISL:BSCA:1,2012-12-05T15:30:00Z,30.3288,-87.8293,1.759,24.1,1111122 
DISL,ioos:station:DISL:BSCA:1,2012-12-05T16:00:00Z,30.3288,-87.8293,1.778,24.45,1111122 
DISL,ioos:station:DISL:BSCA:1,2012-12-05T16:30:00Z,30.3288,-87.8293,1.776,24.51,1111122 
DISL,ioos:station:DISL:BSCA:1,2012-12-05T17:00:00Z,30.3288,-87.8293,1.786,24.71,1111122 
DISL,ioos:station:DISL:BSCA:1,2012-12-05T17:30:00Z,30.3288,-87.8293,1.785,25.03,1111122 
DISL,ioos:station:DISL:BSCA:1,2012-12-05T18:00:00Z,30.3288,-87.8293,1.789,24.89,1111122 
DISL,ioos:station:DISL:BSCA:1,2012-12-05T18:30:00Z,30.3288,-87.8293,1.801,24.63,1111122 
DISL,ioos:station:DISL:BSCA:1,2012-12-05T19:00:00Z,30.3288,-87.8293,1.802,24.57,1111122 
DISL,ioos:station:DISL:BSCA:1,2012-12-05T19:30:00Z,30.3288,-87.8293,1.818,24.71,1111122 
DISL,ioos:station:DISL:BSCA:1,2012-12-05T20:00:00Z,30.3288,-87.8293,1.827,24.88,1111122 
DISL,ioos:station:DISL:BSCA:1,2012-12-05T20:30:00Z,30.3288,-87.8293,1.841,24.56,1111122 
DISL,ioos:station:DISL:BSCA:1,2012-12-05T21:00:00Z,30.3288,-87.8293,1.861,24.86,1111122 
DISL,ioos:station:DISL:BSCA:1,2012-12-05T21:30:00Z,30.3288,-87.8293,1.873,24.81,1111122 
DISL,ioos:station:DISL:BSCA:1,2012-12-05T22:00:00Z,30.3288,-87.8293,1.895,25.0,1111122 
DISL,ioos:station:DISL:BSCA:1,2012-12-05T22:30:00Z,30.3288,-87.8293,1.912,24.82,1111122 
DISL,ioos:station:DISL:BSCA:1,2012-12-05T23:00:00Z,30.3288,-87.8293,1.941,25.0,1111122 
DISL,ioos:station:DISL:BSCA:1,2012-12-05T23:30:00Z,30.3288,-87.8293,1.963,24.87,1111122 
DISL,ioos:station:DISL:BSCA:1,2012-12-06T00:00:00Z,30.3288,-87.8293,1.987,24.92,1111122 
DISL,ioos:station:DISL:BSCA:1,2012-12-06T00:30:00Z,30.3288,-87.8293,2.014,25.2,1111122 
DISL,ioos:station:DISL:BSCA:1,2012-12-06T01:00:00Z,30.3288,-87.8293,2.021,25.19,1111122 
DISL,ioos:station:DISL:BSCA:1,2012-12-06T01:30:00Z,30.3288,-87.8293,2.035,25.22,1111122 
DISL,ioos:station:DISL:BSCA:1,2012-12-06T02:00:00Z,30.3288,-87.8293,2.039,25.22,1111122 
DISL,ioos:station:DISL:BSCA:1,2012-12-06T02:30:00Z,30.3288,-87.8293,2.04,25.21,1111122 
DISL,ioos:station:DISL:BSCA:1,2012-12-06T03:00:00Z,30.3288,-87.8293,2.053,25.2,1111122 
DISL,ioos:station:DISL:BSCA:1,2012-12-06T03:30:00Z,30.3288,-87.8293,2.059,25.25,1111122 
DISL,ioos:station:DISL:BSCA:1,2012-12-06T04:00:00Z,30.3288,-87.8293,2.066,25.3,1111122 
DISL,ioos:station:DISL:BSCA:1,2012-12-06T04:30:00Z,30.3288,-87.8293,2.074,25.35,1111122 
DISL,ioos:station:DISL:BSCA:1,2012-12-06T05:00:00Z,30.3288,-87.8293,2.073,25.4,1111122 
DISL,ioos:station:DISL:BSCA:1,2012-12-06T05:30:00Z,30.3288,-87.8293,2.077,25.48,1111122 
DISL,ioos:station:DISL:BSCA:1,2012-12-06T06:00:00Z,30.3288,-87.8293,2.071,25.51,1111122 
DISL,ioos:station:DISL:BSCA:1,2012-12-06T06:30:00Z,30.3288,-87.8293,2.07,25.51,1111122 
DISL,ioos:station:DISL:BSCA:1,2012-12-06T07:00:00Z,30.3288,-87.8293,2.072,25.56,1111122 
DISL,ioos:station:DISL:BSCA:1,2012-12-06T07:30:00Z,30.3288,-87.8293,2.067,25.61,1111122 
DISL,ioos:station:DISL:BSCA:1,2012-12-06T08:00:00Z,30.3288,-87.8293,2.046,25.64,1111122 
DISL,ioos:station:DISL:BSCA:1,2012-12-06T08:30:00Z,30.3288,-87.8293,2.032,25.61,1111122 
DISL,ioos:station:DISL:BSCA:1,2012-12-06T09:00:00Z,30.3288,-87.8293,2.019,25.47,1111122 
DISL,ioos:station:DISL:BSCA:1,2012-12-06T09:30:00Z,30.3288,-87.8293,2.013,25.23,1111122 
DISL,ioos:station:DISL:BSCA:1,2012-12-06T10:00:00Z,30.3288,-87.8293,2.002,25.63,1111122 
DISL,ioos:station:DISL:BSCA:1,2012-12-06T10:30:00Z,30.3288,-87.8293,1.992,25.81,1111122 
DISL,ioos:station:DISL:BSCA:1,2012-12-06T11:00:00Z,30.3288,-87.8293,1.979,25.8,1111122 
DISL,ioos:station:DISL:BSCA:1,2012-12-06T11:30:00Z,30.3288,-87.8293,1.965,25.67,1111122 
DISL,ioos:station:DISL:BSCA:1,2012-12-06T12:00:00Z,30.3288,-87.8293,1.952,25.72,1111122 
DISL,ioos:station:DISL:BSCA:1,2012-12-06T12:30:00Z,30.3288,-87.8293,1.935,25.36,1111122 
DISL,ioos:station:DISL:BSCA:1,2012-12-06T13:00:00Z,30.3288,-87.8293,1.915,25.63,1111122 
DISL,ioos:station:DISL:BSCA:1,2012-12-06T13:30:00Z,30.3288,-87.8293,1.891,25.79,1111122 
DISL,ioos:station:DISL:BSCA:1,2012-12-06T14:00:00Z,30.3288,-87.8293,1.875,25.07,1111122 